Location: Oak Glen
(34.0495°N, 116.9470°E)
Time: 20:07:42
(UTC-07:00)

OTV 5 (USA 277) - Pass Details

Date: 16 October 2017
Orbit: 404 x 417 km, 43.0° (Epoch: 07 September)

Event Time Altitude Azimuth Distance (km) Brightness Sun altitude
Rises 04:08:11 0° 299° (WNW) 2,350 ? -19.6°
Reaches altitude 10° 04:10:47 10° 319° (NW) 1,487 ? -20.1°
Enters shadow 04:13:00 18° 1° (N) 1,106 ? -20.6°
